TimeCDT,TemperatureF,Dew PointF,Humidity,Sea Level PressureIn,VisibilityMPH,Wind Direction,Wind SpeedMPH,Gust SpeedMPH,PrecipitationIn,Events,Conditions,WindDirDegrees,DateUTC
12:15 AM,43.0,42.8,99,29.95,10.0,WSW,4.6,-,N/A,,Overcast,250,2012-10-10 05:15:00
12:35 AM,42.8,42.8,100,29.94,10.0,WSW,5.8,-,N/A,,Overcast,240,2012-10-10 05:35:00
12:55 AM,42.4,42.1,99,29.95,10.0,WSW,5.8,-,N/A,,Mostly Cloudy,240,2012-10-10 05:55:00
1:15 AM,41.4,41.4,100,29.95,10.0,WSW,5.8,-,N/A,,Scattered Clouds,240,2012-10-10 06:15:00
1:35 AM,40.8,40.8,100,29.96,10.0,WSW,6.9,-,N/A,,Clear,240,2012-10-10 06:35:00
1:55 AM,41.0,41.0,100,29.96,10.0,WSW,8.1,-,N/A,,Clear,250,2012-10-10 06:55:00
2:15 AM,39.6,39.6,100,29.96,7.0,WSW,6.9,-,N/A,,Clear,250,2012-10-10 07:15:00
2:35 AM,40.1,40.1,100,29.96,7.0,West,6.9,-,N/A,,Clear,270,2012-10-10 07:35:00
2:55 AM,40.1,40.1,100,29.96,7.0,West,8.1,-,N/A,,Clear,270,2012-10-10 07:55:00
3:15 AM,40.1,40.1,100,29.96,10.0,West,9.2,-,N/A,,Clear,280,2012-10-10 08:15:00
3:35 AM,39.6,39.4,99,29.97,10.0,West,8.1,-,N/A,,Clear,280,2012-10-10 08:35:00
3:55 AM,38.7,38.3,99,29.97,10.0,WNW,9.2,-,N/A,,Clear,290,2012-10-10 08:55:00
4:15 AM,38.1,37.8,99,29.98,10.0,WNW,9.2,-,N/A,,Clear,290,2012-10-10 09:15:00
4:35 AM,37.8,37.4,99,29.98,10.0,West,8.1,-,N/A,,Clear,280,2012-10-10 09:35:00
4:55 AM,37.0,36.5,98,29.99,10.0,West,8.1,-,N/A,,Clear,280,2012-10-10 09:55:00
5:15 AM,36.3,35.6,97,29.99,10.0,West,6.9,-,N/A,,Clear,280,2012-10-10 10:15:00
5:35 AM,35.8,35.6,99,30.00,10.0,West,8.1,-,N/A,,Clear,270,2012-10-10 10:35:00
5:55 AM,35.6,35.6,100,30.01,10.0,West,9.2,-,N/A,,Clear,280,2012-10-10 10:55:00
6:15 AM,35.6,35.1,98,30.02,10.0,West,10.4,-,N/A,,Clear,280,2012-10-10 11:15:00
6:35 AM,35.2,34.7,98,30.03,10.0,West,9.2,-,N/A,,Clear,280,2012-10-10 11:35:00
6:55 AM,35.1,33.8,95,30.04,10.0,West,10.4,-,0.01,,Clear,280,2012-10-10 11:55:00
7:15 AM,34.9,33.8,96,30.05,10.0,West,11.5,-,N/A,,Clear,280,2012-10-10 12:15:00
7:35 AM,35.1,34.0,96,30.06,10.0,West,10.4,-,N/A,,Clear,280,2012-10-10 12:35:00
7:55 AM,36.1,34.5,94,30.06,10.0,West,10.4,-,N/A,,Clear,280,2012-10-10 12:55:00
8:15 AM,37.4,35.4,93,30.08,10.0,West,9.2,-,N/A,,Clear,280,2012-10-10 13:15:00
8:35 AM,38.7,35.8,89,30.09,10.0,West,13.8,18.4,N/A,,Clear,280,2012-10-10 13:35:00
8:55 AM,40.1,36.0,85,30.10,10.0,WNW,15.0,20.7,N/A,,Clear,290,2012-10-10 13:55:00
9:15 AM,41.0,34.3,77,30.11,10.0,WNW,15.0,21.9,N/A,,Clear,300,2012-10-10 14:15:00
9:35 AM,42.1,34.9,76,30.11,10.0,WNW,17.3,20.7,N/A,,Clear,300,2012-10-10 14:35:00
9:55 AM,43.3,35.1,73,30.12,10.0,WNW,19.6,24.2,N/A,,Clear,290,2012-10-10 14:55:00
10:15 AM,44.6,34.5,68,30.13,10.0,WNW,19.6,24.2,N/A,,Clear,290,2012-10-10 15:15:00
10:35 AM,45.1,33.4,64,30.13,10.0,WNW,17.3,24.2,N/A,,Clear,300,2012-10-10 15:35:00
10:55 AM,46.2,31.8,57,30.13,10.0,NW,15.0,23.0,N/A,,Clear,310,2012-10-10 15:55:00
11:15 AM,47.3,30.9,53,30.14,10.0,NW,17.3,24.2,N/A,,Clear,310,2012-10-10 16:15:00
11:35 AM,48.4,29.7,48,30.14,10.0,WNW,17.3,26.5,N/A,,Clear,300,2012-10-10 16:35:00
11:55 AM,49.8,30.0,47,30.14,10.0,WNW,21.9,28.8,N/A,,Clear,290,2012-10-10 16:55:00
12:15 PM,50.2,28.8,44,30.14,10.0,NW,17.3,28.8,N/A,,Clear,320,2012-10-10 17:15:00
12:35 PM,49.3,29.3,46,30.14,10.0,NW,17.3,32.2,N/A,,Scattered Clouds,310,2012-10-10 17:35:00
12:55 PM,50.5,29.7,45,30.14,10.0,West,15.0,28.8,N/A,,Scattered Clouds,280,2012-10-10 17:55:00
1:15 PM,52.9,30.7,43,30.14,10.0,NW,17.3,31.1,N/A,,Mostly Cloudy,310,2012-10-10 18:15:00
1:35 PM,52.2,30.2,43,30.13,10.0,NW,17.3,25.3,N/A,,Mostly Cloudy,310,2012-10-10 18:35:00
1:55 PM,50.7,29.8,45,30.14,10.0,NW,18.4,27.6,N/A,,Overcast,310,2012-10-10 18:55:00
2:15 PM,52.9,30.2,42,30.14,10.0,West,23.0,28.8,N/A,,Mostly Cloudy,280,2012-10-10 19:15:00
2:35 PM,52.7,29.8,42,30.14,10.0,West,20.7,25.3,N/A,,Mostly Cloudy,280,2012-10-10 19:35:00
2:55 PM,52.5,30.6,43,30.14,10.0,West,16.1,23.0,N/A,,Scattered Clouds,280,2012-10-10 19:55:00
3:15 PM,51.6,30.9,45,30.14,10.0,NW,15.0,24.2,N/A,,Mostly Cloudy,310,2012-10-10 20:15:00
3:35 PM,52.9,28.8,40,30.13,10.0,WNW,17.3,26.5,N/A,,Scattered Clouds,300,2012-10-10 20:35:00
3:55 PM,52.9,28.9,40,30.13,10.0,WNW,19.6,26.5,N/A,,Scattered Clouds,300,2012-10-10 20:55:00
4:15 PM,52.5,28.4,39,30.13,10.0,WNW,12.7,21.9,N/A,,Scattered Clouds,290,2012-10-10 21:15:00
4:35 PM,53.1,29.1,40,30.12,10.0,WNW,17.3,-,N/A,,Clear,290,2012-10-10 21:35:00
4:55 PM,52.2,29.5,42,30.13,10.0,WNW,12.7,-,N/A,,Scattered Clouds,290,2012-10-10 21:55:00
5:15 PM,52.2,29.1,41,30.13,10.0,West,11.5,-,N/A,,Clear,280,2012-10-10 22:15:00
5:35 PM,51.4,29.7,43,30.14,10.0,West,9.2,-,N/A,,Clear,280,2012-10-10 22:35:00
5:55 PM,50.2,30.0,46,30.14,10.0,WNW,10.4,-,N/A,,Clear,290,2012-10-10 22:55:00
6:15 PM,48.2,29.8,49,30.14,10.0,West,6.9,-,N/A,,Clear,280,2012-10-10 23:15:00
6:35 PM,46.4,29.8,53,30.14,10.0,West,6.9,-,N/A,,Clear,260,2012-10-10 23:35:00
6:55 PM,44.8,30.0,56,30.15,10.0,West,5.8,-,N/A,,Clear,260,2012-10-10 23:55:00
7:15 PM,44.1,30.0,58,30.16,10.0,West,4.6,-,N/A,,Clear,270,2012-10-11 00:15:00
7:35 PM,43.2,30.2,60,30.16,10.0,West,4.6,-,N/A,,Clear,270,2012-10-11 00:35:00
7:55 PM,42.4,29.8,61,30.17,10.0,West,4.6,-,N/A,,Clear,270,2012-10-11 00:55:00
8:15 PM,42.3,30.0,62,30.18,10.0,West,3.5,-,N/A,,Clear,260,2012-10-11 01:15:00
8:35 PM,41.7,30.2,64,30.18,10.0,Calm,Calm,-,N/A,,Clear,0,2012-10-11 01:35:00
8:55 PM,40.8,29.8,65,30.18,10.0,Calm,Calm,-,N/A,,Clear,0,2012-10-11 01:55:00
9:15 PM,37.8,29.3,72,30.17,10.0,Calm,Calm,-,N/A,,Clear,0,2012-10-11 02:15:00
9:35 PM,39.6,30.2,69,30.18,10.0,WSW,3.5,-,N/A,,Clear,240,2012-10-11 02:35:00
9:55 PM,40.8,29.8,65,30.18,10.0,SW,3.5,-,N/A,,Clear,220,2012-10-11 02:55:00
10:15 PM,39.2,30.0,70,30.18,10.0,SW,3.5,-,N/A,,Clear,220,2012-10-11 03:15:00
10:35 PM,36.9,29.3,74,30.18,10.0,SSW,3.5,-,N/A,,Clear,200,2012-10-11 03:35:00
10:55 PM,35.8,29.8,79,30.17,10.0,South,3.5,-,N/A,,Clear,190,2012-10-11 03:55:00
11:15 PM,36.5,30.9,80,30.17,10.0,SSW,3.5,-,N/A,,Clear,200,2012-10-11 04:15:00
11:35 PM,36.9,32.0,83,30.17,10.0,Calm,Calm,-,N/A,,Clear,0,2012-10-11 04:35:00
11:55 PM,36.3,32.0,84,30.17,10.0,SSW,3.5,-,N/A,,Clear,210,2012-10-11 04:55:00